Wind_Speed
64 66 67 69 70 72 72 72 71 70 69 66 63 61 59 58 57 56 53 52 51 51 50 50 51 52 52 51 53 54 55 55 57 59 61 63 66 68 70 71 71 72 72
61 62 63 64 66 67 68 68 68 68 67 65 64 61 60 58 57 55 53 52 51 51 50 51 51 52 53 55 55 56 57 59 62 63 65 67 69 71 72 72 73 74 75
53 54 54 55 57 59 61 62 63 63 63 62 61 59 58 56 55 53 52 51 50 50 50 50 52 53 56 57 58 58 61 64 66 68 69 70 71 72 73 74 75 76 78
40 41 42 43 45 47 50 53 55 56 58 57 56 55 54 53 52 51 50 49 49 48 49 51 53 55 57 60 61 62 64 66 69 70 70 71 72 74 75 75 76 78 79
27 26 28 30 33 36 39 42 44 46 48 49 49 49 49 49 48 48 47 47 47 48 49 51 54 56 58 61 62 64 66 68 70 71 71 72 73 75 76 77 78 79 80
17 16 17 19 22 25 28 30 33 35 37 39 42 42 43 43 44 44 44 45 46 47 49 52 54 56 59 61 62 64 66 68 70 71 71 73 75 77 78 80 81 81 81
11 10 10 12 15 16 17 20 23 25 28 31 34 36 38 39 40 41 41 43 44 47 49 52 53 55 56 59 61 63 66 68 70 72 73 75 77 79 80 81 80 79 75
9 5 5 6 8 11 12 15 17 20 23 25 28 30 33 35 36 36 38 40 42 46 47 49 51 53 55 58 61 64 66 69 71 74 75 77 78 79 77 75 71 66 61
10 5 1 2 4 7 9 13 16 18 18 20 23 26 27 29 32 34 37 39 41 44 46 47 50 53 56 59 62 64 67 70 73 74 76 76 75 72 69 65 59 54 51
11 8 5 2 3 5 6 8 10 12 15 18 19 22 25 28 30 32 33 34 37 41 43 47 50 54 57 60 63 66 68 70 72 73 73 71 68 64 59 54 49 47 45
12 10 8 5 3 2 3 4 6 9 12 14 17 19 22 24 25 27 30 33 36 40 44 48 52 57 60 63 66 67 68 68 68 66 64 61 56 52 48 45 43 42 41
11 9 8 6 4 2 1 3 5 7 10 12 15 17 18 21 24 27 31 34 38 42 47 51 55 59 62 64 64 65 64 62 59 56 52 48 44 42 40 40 39 39 39
12 11 9 7 6 4 3 3 5 7 9 12 14 17 19 22 26 29 33 36 41 45 50 54 57 60 61 61 60 58 55 52 49 45 41 38 36 35 35 36 37 37 38
12 11 10 9 8 7 7 7 8 10 12 14 16 19 22 25 28 32 35 40 45 49 53 56 58 59 58 56 53 50 48 44 39 36 33 32 32 33 34 35 35 36 35
12 11 11 10 10 10 10 11 12 13 15 17 19 22 25 28 31 35 39 43 48 52 54 56 56 55 52 49 47 44 41 36 33 30 30 31 32 33 34 35 34 34 34
13 13 13 13 13 13 13 14 15 16 18 20 22 25 28 32 35 38 43 47 50 52 53 53 53 50 48 46 43 40 36 32 30 30 30 30 31 32 33 34 34 34 33
15 15 15 15 15 15 15 16 18 20 21 24 26 28 32 35 38 42 46 50 52 52 53 53 51 49 45 42 39 37 33 30 30 30 30 31 31 32 33 33 33 33 32
16 16 16 17 17 17 18 20 21 23 25 27 29 32 35 38 41 45 49 51 52 53 53 52 49 45 41 39 37 34 31 30 30 30 31 31 32 32 33 33 33 32 31
17 18 18 18 19 20 21 23 24 26 28 30 32 35 38 40 44 48 50 52 53 53 52 49 45 41 39 36 33 31 29 29 30 31 31 32 32 33 33 33 32 32 32
19 19 20 20 21 22 24 25 27 29 31 33 35 38 40 43 46 49 52 53 53 52 49 45 41 37 35 32 30 29 29 29 30 31 32 33 33 33 33 33 33 33 33
20 21 22 23 24 25 26 28 29 31 33 35 37 40 42 45 48 51 52 52 51 49 45 40 36 34 32 30 29 28 29 29 30 32 33 33 34 34 34 34 34 33 33
22 23 24 25 26 27 29 30 32 33 35 37 39 42 44 47 50 52 52 51 48 44 40 36 33 32 30 29 28 28 30 31 31 33 33 34 34 34 34 34 34 33 32
23 24 26 27 28 29 31 32 34 35 37 38 41 43 46 48 51 52 51 48 44 40 36 33 32 30 29 29 29 30 31 31 32 34 34 34 34 34 33 33 33 32 32
25 26 27 28 29 31 32 34 35 36 38 40 42 44 47 50 51 51 49 44 40 36 33 32 31 30 30 30 31 31 32 32 33 34 34 34 33 32 32 32 32 32 31
26 27 28 29 31 32 33 35 36 37 39 41 43 46 49 50 51 50 46 42 38 35 33 32 31 31 32 32 32 32 33 33 34 34 33 33 32 31 31 31 31 31 31
27 28 29 31 32 33 34 35 36 38 40 42 45 47 49 50 51 48 44 40 37 35 33 33 32 32 33 33 33 33 33 33 33 33 33 32 31 30 30 30 30 30 29
Wind_Direction
268 265 261 258 256 254 253 252 252 252 253 253 252 252 254 255 258 261 264 267 270 272 275 277 278 280 279 281 281 283 284 286 287 288 289 291 292 293 294 294 294 295 294
272 267 263 258 255 253 251 250 250 250 251 252 252 252 253 254 257 259 262 265 268 272 274 276 278 280 280 280 281 284 285 287 288 289 290 291 293 294 294 295 295 295 295
275 269 263 258 253 252 250 249 248 248 248 250 251 252 253 254 255 258 262 265 268 271 274 276 278 279 280 281 283 284 286 288 289 290 292 293 294 294 295 295 296 296 295
281 271 263 256 252 251 249 248 247 247 247 247 249 250 251 253 255 257 261 264 267 270 273 275 276 278 280 282 284 285 287 289 291 292 293 294 295 295 296 296 296 296 296
289 277 264 255 251 249 248 247 245 244 244 244 246 248 250 252 255 257 260 263 267 270 272 274 276 279 281 284 286 287 289 292 293 294 295 296 296 297 297 298 297 296 295
299 282 269 257 249 245 243 242 240 239 239 241 243 246 249 251 254 257 259 263 266 270 273 275 277 280 282 286 288 290 292 294 295 296 297 298 298 298 298 298 297 296 295
318 290 267 251 240 235 232 234 234 234 237 240 243 245 248 251 253 256 260 264 268 272 275 278 280 282 286 290 292 294 295 296 297 298 299 299 299 299 299 299 298 298 298
343 327 268 238 217 210 214 217 221 227 233 238 242 246 248 252 255 259 264 268 270 273 277 281 285 288 291 293 295 297 299 299 300 300 301 301 300 301 301 301 300 300 300
10 15 25 188 197 201 206 211 214 221 228 238 242 246 251 256 260 264 268 270 274 278 283 287 292 295 296 297 299 300 301 301 301 301 302 302 302 302 302 303 302 301 301
25 28 45 83 153 175 194 206 216 223 229 238 245 252 256 261 265 269 275 280 284 289 293 296 298 299 300 301 302 302 302 302 302 303 303 303 304 305 305 305 305 304 304
35 40 43 48 67 118 168 201 224 234 242 248 256 261 265 271 277 283 288 292 295 297 300 301 302 303 304 305 305 304 304 304 304 304 304 305 307 308 308 309 309 309 309
35 40 45 50 55 73 187 239 253 257 261 266 272 277 281 286 291 295 297 299 301 303 305 306 307 308 308 308 307 307 307 306 307 307 308 309 310 310 311 313 314 315 314
35 39 40 38 33 21 353 319 299 296 295 294 294 296 298 299 300 301 302 304 306 308 310 310 311 312 312 312 311 311 311 311 311 311 311 312 313 314 315 317 319 319 319
25 25 23 17 9 359 346 333 323 315 309 306 305 304 304 305 305 306 308 310 312 314 314 315 316 316 316 316 316 316 315 315 316 315 316 317 317 317 318 319 320 321 321
4 2 359 354 348 342 335 328 322 318 315 312 310 308 308 310 311 312 314 316 317 318 318 319 320 320 320 320 320 320 319 319 320 319 319 319 319 319 320 320 321 321 321
350 348 346 343 338 334 329 324 321 317 315 313 312 312 313 314 315 317 318 320 321 321 321 322 322 322 321 322 322 322 321 322 321 320 321 321 321 322 323 323 322 322 322
338 337 335 333 330 326 323 321 319 317 316 316 316 316 317 318 319 320 322 323 323 322 321 321 320 320 320 321 322 323 323 322 322 322 323 323 324 324 325 324 324 324 324
328 328 327 326 324 322 320 319 318 318 318 318 318 319 320 321 322 323 324 324 323 322 321 321 320 319 319 320 321 322 322 322 323 323 324 324 325 325 326 327 326 325 325
322 323 322 321 320 319 319 319 319 319 320 320 320 321 322 322 323 324 325 324 322 322 321 320 318 318 319 320 321 321 322 323 323 324 325 325 326 326 327 328 327 327 327
316 318 318 318 318 318 319 319 320 320 320 320 321 322 322 323 324 325 325 324 322 322 321 319 318 317 319 321 321 321 322 323 324 325 325 326 326 327 328 328 328 328 328
312 314 316 316 317 318 318 319 319 320 320 320 321 323 323 324 325 326 325 324 323 322 321 319 318 318 319 320 321 320 321 322 324 325 325 326 326 326 327 328 328 327 327
309 312 313 314 315 316 317 319 319 320 321 321 322 323 324 325 326 326 325 324 323 322 321 319 318 318 318 320 320 320 321 322 323 325 325 325 325 326 326 327 327 326 326
306 309 312 313 314 315 317 318 319 320 321 322 323 324 325 326 326 326 325 324 322 321 320 318 318 317 318 318 319 319 320 321 322 323 324 325 324 324 325 326 326 327 327
305 308 310 312 314 315 317 318 319 320 321 323 324 325 326 327 327 327 325 323 321 319 317 317 316 316 317 317 318 318 319 319 320 322 323 323 323 323 324 325 326 327 327
305 308 310 312 314 315 317 318 319 320 322 323 324 325 326 327 327 327 325 322 319 317 316 315 315 315 316 316 316 317 318 318 320 321 322 322 323 322 323 325 326 327 327
305 308 310 312 314 315 317 318 319 321 322 323 324 326 327 327 328 326 324 321 318 316 314 314 314 314 315 315 315 316 317 318 319 320 321 321 321 321 322 324 325 326 327
Height
5634 5632 5631 5631 5632 5635 5639 5644 5649 5654 5660 5665 5669 5673 5676 5679 5681 5683 5684 5685 5684 5684 5683 5681 5680 5677 5675 5672 5669 5666 5662 5659 5655 5651 5646 5640 5634 5628 5622 5616 5611 5605 5599
5610 5608 5608 5609 5611 5614 5619 5625 5631 5638 5644 5649 5655 5659 5663 5666 5669 5671 5672 5673 5673 5673 5672 5670 5668 5665 5662 5659 5655 5652 5648 5644 5640 5636 5630 5623 5616 5610 5604 5598 5592 5585 5578
5588 5586 5586 5588 5592 5596 5602 5608 5615 5622 5629 5635 5641 5646 5650 5654 5657 5659 5661 5662 5662 5661 5660 5659 5656 5653 5650 5646 5642 5638 5633 5629 5623 5619 5613 5606 5599 5591 5586 5579 5572 5565 5556
5571 5569 5570 5573 5577 5581 5587 5594 5601 5608 5615 5622 5629 5634 5638 5642 5646 5648 5650 5651 5651 5650 5649 5647 5644 5641 5637 5632 5628 5623 5618 5612 5606 5601 5595 5588 5580 5572 5565 5560 5554 5544 5535
5562 5559 5560 5563 5567 5572 5577 5584 5590 5597 5605 5612 5618 5623 5628 5632 5635 5638 5639 5640 5640 5639 5637 5635 5632 5628 5624 5619 5614 5608 5603 5596 5589 5583 5576 5569 5561 5553 5545 5538 5531 5523 5513
5558 5556 5556 5558 5561 5566 5571 5576 5583 5590 5596 5603 5609 5614 5619 5623 5626 5628 5629 5630 5629 5628 5626 5623 5620 5615 5610 5605 5599 5593 5587 5579 5572 5565 5558 5550 5541 5532 5524 5515 5506 5499 5491
5559 5556 5556 5557 5559 5563 5568 5573 5578 5585 5591 5597 5602 5607 5611 5615 5617 5619 5620 5620 5619 5617 5615 5611 5607 5602 5597 5591 5585 5578 5570 5561 5554 5547 5539 5529 5521 5511 5503 5493 5482 5473 5464
5562 5559 5558 5558 5560 5563 5567 5572 5578 5583 5588 5593 5597 5601 5605 5608 5610 5611 5611 5610 5608 5606 5603 5599 5594 5589 5583 5578 5571 5563 5553 5544 5536 5527 5518 5509 5498 5488 5479 5470 5461 5453 5444
5566 5563 5561 5561 5563 5566 5569 5573 5577 5582 5586 5590 5594 5597 5600 5601 5603 5603 5602 5601 5599 5596 5591 5587 5582 5576 5570 5564 5556 5547 5538 5527 5516 5506 5496 5486 5476 5466 5457 5450 5442 5435 5430
5570 5568 5567 5566 5567 5569 5572 5575 5578 5582 5585 5588 5591 5593 5594 5595 5595 5595 5593 5591 5588 5585 5580 5575 5570 5563 5555 5547 5538 5529 5520 5509 5498 5486 5475 5465 5455 5446 5439 5432 5427 5421 5415
5576 5574 5572 5572 5572 5573 5575 5577 5580 5582 5584 5586 5587 5588 5589 5589 5588 5586 5584 5582 5578 5574 5569 5562 5556 5548 5539 5529 5520 5510 5500 5490 5480 5468 5458 5448 5439 5432 5425 5419 5414 5408 5402
5581 5579 5577 5577 5577 5577 5578 5579 5580 5581 5582 5583 5584 5584 5583 5582 5581 5579 5576 5573 5569 5563 5557 5549 5541 5532 5522 5512 5502 5491 5481 5471 5461 5452 5443 5435 5429 5422 5416 5410 5403 5397 5390
5584 5583 5581 5580 5580 5580 5580 5580 5580 5580 5580 5580 5580 5579 5578 5576 5573 5571 5567 5563 5557 5551 5543 5535 5525 5515 5505 5494 5484 5474 5464 5455 5446 5439 5432 5426 5420 5414 5408 5402 5395 5389 5381
5587 5585 5584 5583 5582 5581 5580 5579 5579 5578 5577 5577 5575 5574 5572 5569 5566 5562 5557 5552 5545 5538 5529 5520 5510 5499 5489 5478 5468 5459 5450 5443 5436 5430 5424 5419 5413 5407 5401 5395 5389 5382 5375
5588 5586 5585 5583 5582 5580 5579 5578 5577 5575 5574 5572 5570 5568 5565 5562 5558 5553 5547 5540 5533 5524 5515 5505 5496 5486 5476 5466 5457 5449 5441 5434 5428 5423 5418 5412 5407 5401 5394 5388 5382 5375 5369
5588 5586 5584 5582 5580 5579 5577 5575 5574 5572 5570 5567 5565 5561 5558 5553 5548 5543 5536 5528 5520 5512 5503 5493 5484 5475 5465 5456 5448 5440 5434 5427 5422 5417 5411 5406 5400 5394 5388 5381 5375 5368 5362
5586 5584 5582 5580 5578 5576 5574 5572 5570 5568 5565 5561 5558 5554 5549 5544 5538 5532 5525 5517 5509 5500 5491 5482 5473 5464 5456 5448 5440 5433 5427 5421 5416 5410 5405 5399 5393 5387 5381 5375 5368 5362 5356
5584 5582 5579 5577 5575 5573 5570 5568 5565 5562 5559 5555 5551 5546 5541 5535 5529 5522 5514 5506 5497 5488 5480 5471 5462 5454 5446 5439 5432 5426 5420 5415 5409 5404 5399 5393 5387 5381 5374 5368 5362 5355 5350
5581 5578 5576 5574 5571 5569 5566 5563 5559 5556 5552 5547 5543 5538 5532 5526 5519 5512 5504 5495 5486 5477 5468 5459 5451 5444 5437 5430 5424 5419 5414 5409 5403 5398 5392 5386 5381 5375 5368 5362 5355 5349 5342
5577 5575 5572 5569 5567 5564 5560 5557 5553 5549 5545 5540 5535 5529 5523 5516 5509 5501 5493 5484 5475 5466 5457 5449 5441 5435 5429 5423 5418 5413 5408 5403 5398 5392 5386 5380 5374 5368 5362 5356 5349 5343 5336
5573 5570 5567 5564 5561 5558 5554 5551 5546 5542 5537 5532 5527 5521 5514 5507 5500 5492 5483 5474 5464 5456 5447 5440 5433 5427 5422 5417 5412 5407 5402 5397 5392 5386 5380 5374 5368 5362 5356 5349 5343 5336 5330
5567 5565 5562 5559 5556 5552 5548 5544 5540 5535 5530 5524 5518 5512 5505 5498 5490 5481 5472 5463 5455 5446 5439 5432 5426 5421 5416 5411 5406 5401 5396 5391 5386 5380 5374 5368 5362 5356 5350 5344 5337 5331 5324
5562 5559 5556 5553 5549 5546 5542 5537 5532 5527 5522 5516 5510 5503 5496 5489 5480 5472 5463 5454 5446 5438 5431 5425 5420 5414 5410 5405 5400 5395 5390 5385 5380 5374 5368 5362 5356 5350 5344 5338 5332 5325 5319
5556 5553 5550 5547 5543 5539 5535 5530 5525 5520 5514 5508 5502 5495 5487 5479 5471 5462 5453 5445 5438 5431 5424 5419 5413 5408 5403 5398 5393 5388 5383 5378 5373 5367 5361 5356 5350 5344 5338 5332 5326 5320 5314
5549 5546 5543 5540 5536 5532 5527 5522 5517 5512 5506 5500 5493 5486 5479 5470 5462 5453 5444 5437 5430 5424 5418 5412 5407 5402 5397 5392 5386 5381 5376 5371 5366 5360 5355 5349 5343 5338 5332 5326 5321 5315 5308
5543 5540 5536 5533 5529 5524 5520 5515 5509 5504 5498 5492 5485 5477 5470 5461 5453 5444 5436 5429 5422 5416 5410 5405 5400 5394 5389 5384 5379 5374 5369 5364 5358 5353 5347 5342 5337 5332 5326 5321 5315 5309 5304